Weather History for Houghton Lake, MI

Change the Weather History Date:

Tuesday, July 9, 2013

  Actual Average Record
Temperature  
Mean Temperature 75 °F 67 °F  
Max Temperature 82 °F 80 °F 105 °F (1936)
Min Temperature 68 °F 54 °F 34 °F (1942)
Degree Days  
Heating Degree Days 0 2  
Month to date heating degree days 5 18  
Since 1 June heating degree days 107 142  
Since 1 July heating degree days 5 18  
Cooling Degree Days 10 4  
Month to date cooling degree days 47 33  
Year to date cooling degree days 166 108  
Since 1 June cooling degree days 126 92  
Growing Degree Days 25 (Base 50)    
Moisture  
Dew Point 67 °F    
Average Humidity 78    
Maximum Humidity 97    
Minimum Humidity 58    
Precipitation  
Precipitation 0.01 in 0.09 in 1.02 in (1965)
Month to date precipitation 0.45 0.75  
Year to date precipitation 17.68 13.71  
Sea Level Pressure  
Sea Level Pressure 29.96 in    
Wind  
Wind Speed 6 mph (WNW)    
Max Wind Speed 14 mph    
Max Gust Speed 20 mph    
Visibility 9 miles    
Events      
T = Trace of Precipitation, MM = Missing Value Source: NWS Daily Summary

Daily Weather History Graph

Daily Weather History Graph

Search for Another Location

Airport:

Trip Planner

Search our weather history database for the weather conditions in past years. The results will help you decide how hot, cold, wet, or windy it might be!

Date:

Astronomy

Jul. 09, 2013 Rise Set
Actual Time 6:03 AM EDT 9:23 PM EDT
Civil Twilight 5:27 AM EDT 9:59 PM EDT
Nautical Twilight 4:41 AM EDT 10:46 PM EDT
Astronomical Twilight 3:42 AM EDT 11:44 PM EDT
Moon 7:32 AM EDT (7/9) 9:54 PM EDT (7/9)
Length of Visible Light 16h 31m
Length of Day
15h 19m
New Moon, 2% of the Moon is Illuminated
Jul 9
New Moon
Jul 15
First Quarter
Jul 22
Full
Jul 29
Last Quarter
Aug 6
New

Hourly Weather History & Observations

Time (EDT) Temp. Heat Index Dew Point Humidity Pressure Visibility Wind Dir Wind Speed Gust Speed Precip Events Conditions
12:21 AM 71.6 °F - 68.0 °F 88% 29.99 in 10.0 mi WNW 8.1 mph - N/A   Overcast
12:53 AM 70.0 °F - 68.0 °F 93% 29.98 in 10.0 mi NW 5.8 mph - N/A   Overcast
1:53 AM 69.1 °F - 68.0 °F 96% 29.98 in 10.0 mi NW 5.8 mph - N/A   Overcast
2:32 AM 69.8 °F - 68.0 °F 94% 30.00 in 9.0 mi NNW 4.6 mph - N/A   Overcast
2:53 AM 69.1 °F - 66.9 °F 93% 29.99 in 9.0 mi NNW 5.8 mph - N/A   Overcast
3:40 AM 69.8 °F - 66.2 °F 88% 30.00 in 10.0 mi NW 4.6 mph - N/A   Overcast
3:53 AM 68.0 °F - 66.9 °F 96% 29.99 in 9.0 mi WNW 3.5 mph - N/A   Overcast
4:53 AM 68.0 °F - 66.9 °F 96% 29.99 in 9.0 mi Calm Calm - N/A   Overcast
5:36 AM 68.0 °F - 66.2 °F 94% 30.00 in 9.0 mi Calm Calm - N/A   Overcast
5:53 AM 68.0 °F - 66.9 °F 96% 29.99 in 6.0 mi NNW 3.5 mph - N/A   Overcast
6:35 AM 68.0 °F - 66.2 °F 94% 30.00 in 5.0 mi Calm Calm - N/A   Overcast
6:42 AM 68.0 °F - 66.2 °F 94% 30.00 in 6.0 mi Calm Calm - N/A   Overcast
6:53 AM 69.1 °F - 66.9 °F 93% 29.99 in 7.0 mi WNW 3.5 mph - N/A   Overcast
7:03 AM 69.8 °F - 66.2 °F 88% 30.00 in 7.0 mi NW 3.5 mph - N/A   Overcast
7:11 AM 69.8 °F - 66.2 °F 88% 30.01 in 7.0 mi NW 3.5 mph - N/A   Overcast
7:21 AM 69.8 °F - 66.2 °F 88% 30.01 in 8.0 mi NW 3.5 mph - N/A   Overcast
7:28 AM 69.8 °F - 66.2 °F 88% 30.01 in 8.0 mi NW 4.6 mph - N/A   Overcast
7:33 AM 69.8 °F - 66.2 °F 88% 30.02 in 8.0 mi NW 4.6 mph - N/A   Overcast
7:53 AM 69.1 °F - 66.9 °F 93% 30.00 in 7.0 mi NW 4.6 mph - N/A   Overcast
8:00 AM 69.8 °F - 66.2 °F 88% 30.01 in 8.0 mi NW 4.6 mph - N/A   Overcast
8:53 AM 71.1 °F - 66.9 °F 87% 29.99 in 10.0 mi North 3.5 mph - N/A   Overcast
9:05 AM 73.4 °F - 66.2 °F 78% 30.00 in 10.0 mi North 4.6 mph - N/A   Mostly Cloudy
9:31 AM 73.4 °F - 66.2 °F 78% 30.00 in 10.0 mi NW 4.6 mph - N/A   Mostly Cloudy
9:42 AM 71.6 °F - 66.2 °F 83% 30.00 in 10.0 mi Variable 4.6 mph - N/A   Overcast
9:53 AM 73.0 °F - 66.9 °F 81% 29.99 in 10.0 mi Variable 3.5 mph - N/A   Mostly Cloudy
10:09 AM 73.4 °F - 66.2 °F 78% 30.00 in 10.0 mi Calm Calm - N/A   Mostly Cloudy
10:34 AM 71.6 °F - 66.2 °F 83% 30.00 in 10.0 mi West 5.8 mph - N/A   Overcast
10:53 AM 73.0 °F - 66.9 °F 81% 29.98 in 10.0 mi West 4.6 mph - N/A   Overcast
11:04 AM 73.4 °F - 66.2 °F 78% 30.00 in 10.0 mi West 4.6 mph - N/A   Overcast
11:53 AM 73.9 °F - 66.0 °F 76% 29.98 in 10.0 mi WNW 4.6 mph - N/A   Overcast
12:53 PM 75.9 °F - 66.0 °F 71% 29.98 in 10.0 mi WNW 3.5 mph - N/A   Overcast
1:04 PM 77.0 °F - 66.2 °F 69% 29.98 in 10.0 mi WNW 4.6 mph - N/A   Overcast
1:53 PM 78.1 °F - 64.9 °F 64% 29.96 in 10.0 mi WSW 6.9 mph - N/A   Clear
2:53 PM 80.1 °F 81.7 °F 64.0 °F 58% 29.94 in 10.0 mi West 6.9 mph - N/A   Clear
3:53 PM 80.1 °F 82.1 °F 66.0 °F 62% 29.92 in 10.0 mi WSW 3.5 mph - N/A   Clear
4:53 PM 80.1 °F 82.3 °F 66.9 °F 64% 29.90 in 10.0 mi SW 4.6 mph - N/A   Clear
5:53 PM 80.1 °F 82.9 °F 69.1 °F 69% 29.88 in 10.0 mi SSW 5.8 mph - N/A   Clear
6:53 PM 80.1 °F 82.9 °F 69.1 °F 69% 29.87 in 10.0 mi South 8.1 mph - N/A   Clear
7:53 PM 77.0 °F - 70.0 °F 79% 29.86 in 10.0 mi South 6.9 mph - N/A   Mostly Cloudy
8:53 PM 75.9 °F - 70.0 °F 82% 29.83 in 10.0 mi SSW 8.1 mph - N/A   Scattered Clouds
9:53 PM 73.9 °F - 70.0 °F 87% 29.83 in 10.0 mi SSW 9.2 mph - N/A   Mostly Cloudy
10:53 PM 73.0 °F - 69.1 °F 87% 29.83 in 10.0 mi SW 10.4 mph - N/A   Mostly Cloudy
11:53 PM 73.0 °F - 70.0 °F 90% 29.81 in 10.0 mi SSW 12.7 mph - N/A   Overcast